призрачный форум

www.prizrak.ws

Информация о пользователе

Привет, Гость! Войдите или зарегистрируйтесь.


Вы здесь » www.prizrak.ws » Software, ОС, программное обеспечение..


Software, ОС, программное обеспечение..

Тем 43951 страница 44000 из 157787

Тема Ответов Просмотров Последнее сообщение
0 1 2020-05-03 18:12:57  apple2000
0 2 2020-05-03 18:12:38  amiana20
0 2 2020-05-03 18:10:56  oaxino
0 1 2020-05-03 18:10:51  apple2000
0 1 2020-05-03 18:09:00  oaxino
0 5 2020-05-03 18:08:44  apple2000
0 3 2020-05-03 18:08:01  oaxino
0 2 2020-05-03 18:07:02  amiana20
0 6 2020-05-03 18:06:38  apple2000
43960 Cadence MDV 18.03 Linux  Xue Wang
0 0 2020-05-03 18:05:25  Xue Wang
0 2 2020-05-03 18:04:32  apple2000
0 2 2020-05-03 18:02:25  apple2000
0 1 2020-05-03 18:00:19  apple2000
0 1 2020-05-03 17:59:34  amiana20
0 2 2020-05-03 17:58:13  apple2000
0 2 2020-05-03 17:56:08  apple2000
0 3 2020-05-03 17:54:01  apple2000
0 1 2020-05-03 17:52:44  amiana20
43969 SPEOS v2018.1.0 x64  Xue Wang
0 4 2020-05-03 17:49:53  Xue Wang
0 1 2020-05-03 17:48:07  apple2000
0 3 2020-05-03 17:46:01  apple2000
0 3 2020-05-03 17:43:54  apple2000
0 2 2020-05-03 17:42:27  amiana20
0 1 2020-05-03 17:40:01  apple2000
43975 Cadaplus APLUS v18.034  Xue Wang
0 1 2020-05-03 17:39:44  Xue Wang
43976 Cadaplus APLUS v18.034  Xue Wang
0 0 2020-05-03 17:38:27  Xue Wang
0 2 2020-05-03 17:37:55  apple2000
0 1 2020-05-03 17:36:42  amiana20
0 2 2020-05-03 17:35:49  apple2000
0 2 2020-05-03 17:33:43  apple2000
0 1 2020-05-03 17:31:36  apple2000
0 0 2020-05-03 17:30:12  Xue Wang
0 1 2020-05-03 17:29:30  apple2000
0 4 2020-05-03 17:27:24  apple2000
0 4 2020-05-03 17:26:38  Xue Wang
0 1 2020-05-03 17:22:27  apple2000
43987 CadLink SignLab v10.0  Xue Wang
0 4 2020-05-03 17:15:32  Xue Wang
43988 CadLink SignLab v10.0  Xue Wang
0 4 2020-05-03 17:13:52  Xue Wang
43989 Indusoft web studio v8.1  Xue Wang
0 2 2020-05-03 17:05:26  Xue Wang
0 3 2020-05-03 17:02:48  Xue Wang
43991 CablEquity v2013  Xue Wang
0 0 2020-05-03 16:50:16  Xue Wang
43992 SPACE-E.v5.4  Xue Wang
0 4 2020-05-03 16:41:44  Xue Wang
0 4 2020-05-03 16:40:38  Xue Wang
0 2 2020-05-03 16:35:30  oaxino
0 1 2020-05-03 16:34:26  oaxino
43996 CYMGRD v6.51  Xue Wang
0 4 2020-05-03 16:30:56  Xue Wang
43997 SOFTWARE ENGINEERING  Xue Wang
0 0 2020-05-03 16:22:13  Xue Wang
43998 ImpactCAD v2019  Xue Wang
0 2 2020-05-03 16:20:21  Xue Wang
0 1 2020-05-03 16:12:06  oaxino
44000 CYMCAP 7.2  Xue Wang
0 4 2020-05-03 16:10:13  Xue Wang

Вы здесь » www.prizrak.ws » Software, ОС, программное обеспечение..